Year,Month,Day,Hour,Minute,Value (Times are PST for temperature in C)
2010,08,12,00,00,12.40
2010,08,12,00,01,12.40
2010,08,12,00,02,12.40
2010,08,12,00,03,12.40
2010,08,12,00,04,12.40
2010,08,12,00,05,12.50
2010,08,12,00,06,12.50
2010,08,12,00,07,12.50
2010,08,12,00,08,12.50
2010,08,12,00,09,12.50
2010,08,12,00,10,12.50
2010,08,12,00,11,12.60
2010,08,12,00,12,12.60
2010,08,12,00,13,12.60
2010,08,12,00,14,12.60
2010,08,12,00,15,12.60
2010,08,12,00,16,12.60
2010,08,12,00,17,12.60
2010,08,12,00,18,12.60
2010,08,12,00,19,12.60
2010,08,12,00,20,12.60
2010,08,12,00,21,12.70
2010,08,12,00,22,12.70
2010,08,12,00,23,12.70
2010,08,12,00,24,12.70
2010,08,12,00,25,12.70
2010,08,12,00,26,12.70
2010,08,12,00,27,12.60
2010,08,12,00,28,12.60
2010,08,12,00,29,12.60
2010,08,12,00,30,12.60
2010,08,12,00,31,12.60
2010,08,12,00,32,12.60
2010,08,12,00,33,12.60
2010,08,12,00,34,12.60
2010,08,12,00,35,12.60
2010,08,12,00,36,12.60
2010,08,12,00,37,12.60
2010,08,12,00,38,12.60
2010,08,12,00,39,12.60
2010,08,12,00,40,12.50
2010,08,12,00,41,12.50
2010,08,12,00,42,12.50
2010,08,12,00,43,12.50
2010,08,12,00,44,12.40
2010,08,12,00,45,12.40
2010,08,12,00,46,12.40
2010,08,12,00,47,12.40
2010,08,12,00,48,12.40
2010,08,12,00,49,12.40
2010,08,12,00,50,12.30
2010,08,12,00,51,12.30
2010,08,12,00,52,12.30
2010,08,12,00,53,12.30
2010,08,12,00,54,12.30
2010,08,12,00,55,12.30
2010,08,12,00,56,12.20
2010,08,12,00,57,12.20
2010,08,12,00,58,12.20
2010,08,12,00,59,12.20
2010,08,12,01,00,12.20
2010,08,12,01,01,12.20
2010,08,12,01,02,12.20
2010,08,12,01,03,12.10
2010,08,12,01,04,12.10
2010,08,12,01,05,12.10
2010,08,12,01,06,12.10
2010,08,12,01,07,12.10
2010,08,12,01,08,12.10
2010,08,12,01,09,12.10
2010,08,12,01,10,12.10
2010,08,12,01,11,12.10
2010,08,12,01,12,12.10
2010,08,12,01,13,12.10
2010,08,12,01,14,12.10
2010,08,12,01,15,12.10
2010,08,12,01,16,12.10
2010,08,12,01,17,12.10
2010,08,12,01,18,12.10
2010,08,12,01,19,12.10
2010,08,12,01,20,12.10
2010,08,12,01,21,12.10
2010,08,12,01,22,12.10
2010,08,12,01,23,12.10
2010,08,12,01,24,12.00
2010,08,12,01,25,12.10
2010,08,12,01,26,12.00
2010,08,12,01,27,12.00
2010,08,12,01,28,12.10
2010,08,12,01,29,12.10
2010,08,12,01,30,12.10
2010,08,12,01,31,12.10
2010,08,12,01,32,12.10
2010,08,12,01,33,12.10
2010,08,12,01,34,12.10
2010,08,12,01,35,12.10
2010,08,12,01,36,12.10
2010,08,12,01,37,12.10
2010,08,12,01,38,12.10
2010,08,12,01,39,12.10
2010,08,12,01,40,12.10
2010,08,12,01,41,12.10
2010,08,12,01,42,12.10
2010,08,12,01,43,12.10
2010,08,12,01,44,12.10
2010,08,12,01,45,12.10
2010,08,12,01,46,12.10
2010,08,12,01,47,12.20
2010,08,12,01,48,12.20
2010,08,12,01,49,12.20
2010,08,12,01,50,12.20
2010,08,12,01,51,12.20
2010,08,12,01,52,12.20
2010,08,12,01,53,12.20
2010,08,12,01,54,12.20
2010,08,12,01,55,12.20
2010,08,12,01,56,12.20
2010,08,12,01,57,12.20
2010,08,12,01,58,12.20
2010,08,12,01,59,12.20
2010,08,12,02,00,12.20
2010,08,12,02,01,12.20
2010,08,12,02,02,12.20
2010,08,12,02,03,12.20
2010,08,12,02,04,12.30
2010,08,12,02,05,12.30
2010,08,12,02,06,12.30
2010,08,12,02,07,12.30
2010,08,12,02,08,12.30
2010,08,12,02,09,12.30
2010,08,12,02,10,12.30
2010,08,12,02,11,12.30
2010,08,12,02,12,12.30
2010,08,12,02,13,12.30
2010,08,12,02,14,12.30
2010,08,12,02,15,12.30
2010,08,12,02,16,12.30
2010,08,12,02,17,12.30
2010,08,12,02,18,12.30
2010,08,12,02,19,12.30
2010,08,12,02,20,12.30
2010,08,12,02,21,12.30
2010,08,12,02,22,12.30
2010,08,12,02,23,12.30
2010,08,12,02,24,12.30
2010,08,12,02,25,12.30
2010,08,12,02,26,12.30
2010,08,12,02,27,12.30
2010,08,12,02,28,12.30
2010,08,12,02,29,12.30
2010,08,12,02,30,12.30
2010,08,12,02,31,12.30
2010,08,12,02,32,12.30
2010,08,12,02,33,12.30
2010,08,12,02,34,12.30
2010,08,12,02,35,12.30
2010,08,12,02,36,12.30
2010,08,12,02,37,12.30
2010,08,12,02,38,12.30
2010,08,12,02,39,12.30
2010,08,12,02,40,12.20
2010,08,12,02,41,12.20
2010,08,12,02,42,12.20
2010,08,12,02,43,12.20
2010,08,12,02,44,12.20
2010,08,12,02,45,12.20
2010,08,12,02,46,12.20
2010,08,12,02,47,12.20
2010,08,12,02,48,12.20
2010,08,12,02,49,12.20
2010,08,12,02,50,12.20
2010,08,12,02,51,12.20
2010,08,12,02,52,12.20
2010,08,12,02,53,12.20
2010,08,12,02,54,12.20
2010,08,12,02,55,12.20
2010,08,12,02,56,12.20
2010,08,12,02,57,12.20
2010,08,12,02,58,12.20
2010,08,12,02,59,12.20
2010,08,12,03,00,12.20
2010,08,12,03,01,12.20
2010,08,12,03,02,12.20
2010,08,12,03,03,12.20
2010,08,12,03,04,12.20
2010,08,12,03,05,12.20
2010,08,12,03,06,12.10
2010,08,12,03,07,12.10
2010,08,12,03,08,12.10
2010,08,12,03,09,12.10
2010,08,12,03,10,12.10
2010,08,12,03,11,12.10
2010,08,12,03,12,12.10
2010,08,12,03,13,12.10
2010,08,12,03,14,12.10
2010,08,12,03,15,12.10
2010,08,12,03,16,12.10
2010,08,12,03,17,12.10
2010,08,12,03,18,12.10
2010,08,12,03,19,12.10
2010,08,12,03,20,12.10
2010,08,12,03,21,12.10
2010,08,12,03,22,12.10
2010,08,12,03,23,12.10
2010,08,12,03,24,12.10
2010,08,12,03,25,12.00
2010,08,12,03,26,12.00
2010,08,12,03,27,12.00
2010,08,12,03,28,12.00
2010,08,12,03,29,12.00
2010,08,12,03,30,12.00
2010,08,12,03,31,12.00
2010,08,12,03,32,12.00
2010,08,12,03,33,12.00
2010,08,12,03,34,12.00
2010,08,12,03,35,12.00
2010,08,12,03,36,11.90
2010,08,12,03,37,11.90
2010,08,12,03,38,11.90
2010,08,12,03,39,11.90
2010,08,12,03,40,11.90
2010,08,12,03,41,11.90
2010,08,12,03,42,11.90
2010,08,12,03,43,11.90
2010,08,12,03,44,11.90
2010,08,12,03,45,11.90
2010,08,12,03,46,11.90
2010,08,12,03,47,11.90
2010,08,12,03,48,11.90
2010,08,12,03,49,11.90
2010,08,12,03,50,11.90
2010,08,12,03,51,11.90
2010,08,12,03,52,11.90
2010,08,12,03,53,11.90
2010,08,12,03,54,11.90
2010,08,12,03,55,11.90
2010,08,12,03,56,11.90
2010,08,12,03,57,11.90
2010,08,12,03,58,11.90
2010,08,12,03,59,11.90
2010,08,12,04,00,11.90
2010,08,12,04,01,11.90
2010,08,12,04,02,11.90
2010,08,12,04,03,11.90
2010,08,12,04,04,11.90
2010,08,12,04,05,11.90
2010,08,12,04,06,11.90
2010,08,12,04,07,11.90
2010,08,12,04,08,11.90
2010,08,12,04,09,11.90
2010,08,12,04,10,11.90
2010,08,12,04,11,11.90
2010,08,12,04,12,11.90
2010,08,12,04,13,11.90
2010,08,12,04,14,11.80
2010,08,12,04,15,11.80
2010,08,12,04,16,11.80
2010,08,12,04,17,11.80
2010,08,12,04,18,11.80
2010,08,12,04,19,11.80
2010,08,12,04,20,11.80
2010,08,12,04,21,11.80
2010,08,12,04,22,11.80
2010,08,12,04,23,11.80
2010,08,12,04,24,11.80
2010,08,12,04,25,11.80
2010,08,12,04,26,11.70
2010,08,12,04,27,11.70
2010,08,12,04,28,11.70
2010,08,12,04,29,11.70
2010,08,12,04,30,11.70
2010,08,12,04,31,11.70
2010,08,12,04,32,11.70
2010,08,12,04,33,11.70
2010,08,12,04,34,11.70
2010,08,12,04,35,11.70
2010,08,12,04,36,11.70
2010,08,12,04,37,11.70
2010,08,12,04,38,11.70
2010,08,12,04,39,11.70
2010,08,12,04,40,11.70
2010,08,12,04,41,11.70
2010,08,12,04,42,11.70
2010,08,12,04,43,11.70
2010,08,12,04,44,11.70
2010,08,12,04,45,11.70
2010,08,12,04,46,11.70
2010,08,12,04,47,11.70
2010,08,12,04,48,11.70
2010,08,12,04,49,11.80
2010,08,12,04,50,11.80
2010,08,12,04,51,11.80
2010,08,12,04,52,11.80
2010,08,12,04,53,11.70
2010,08,12,04,54,11.70
2010,08,12,04,55,11.70
2010,08,12,04,56,11.70
2010,08,12,04,57,11.70
2010,08,12,04,58,11.70
2010,08,12,04,59,11.60
2010,08,12,05,00,11.60
2010,08,12,05,01,11.60
2010,08,12,05,02,11.60
2010,08,12,05,03,11.70
2010,08,12,05,04,11.70
2010,08,12,05,05,11.70
2010,08,12,05,06,11.60
2010,08,12,05,07,11.60
2010,08,12,05,08,11.60
2010,08,12,05,09,11.60
2010,08,12,05,10,11.60
2010,08,12,05,11,11.60
2010,08,12,05,12,11.60
2010,08,12,05,13,11.60
2010,08,12,05,14,11.50
2010,08,12,05,15,11.50
2010,08,12,05,16,11.50
2010,08,12,05,17,11.50
2010,08,12,05,18,11.40
2010,08,12,05,19,11.40
2010,08,12,05,20,11.40
2010,08,12,05,21,11.40
2010,08,12,05,22,11.40
2010,08,12,05,23,11.40
2010,08,12,05,24,11.40
2010,08,12,05,25,11.40
2010,08,12,05,26,11.40
2010,08,12,05,27,11.40
2010,08,12,05,28,11.40
2010,08,12,05,29,11.40
2010,08,12,05,30,11.40
2010,08,12,05,31,11.40
2010,08,12,05,32,11.40
2010,08,12,05,33,11.40
2010,08,12,05,34,11.40
2010,08,12,05,35,11.40
2010,08,12,05,36,11.40
2010,08,12,05,37,11.40
2010,08,12,05,38,11.40
2010,08,12,05,39,11.40
2010,08,12,05,40,11.30
2010,08,12,05,41,11.30
2010,08,12,05,42,11.30
2010,08,12,05,43,11.30
2010,08,12,05,44,11.30
2010,08,12,05,45,11.30
2010,08,12,05,46,11.30
2010,08,12,05,47,11.40
2010,08,12,05,48,11.40
2010,08,12,05,49,11.40
2010,08,12,05,50,11.40
2010,08,12,05,51,11.40
2010,08,12,05,52,11.30
2010,08,12,05,53,11.30
2010,08,12,05,54,11.30
2010,08,12,05,55,11.20
2010,08,12,05,56,11.20
2010,08,12,05,57,11.20
2010,08,12,05,58,11.20
2010,08,12,05,59,11.20
2010,08,12,06,00,11.20
2010,08,12,06,01,11.20
2010,08,12,06,02,11.20
2010,08,12,06,03,11.20
2010,08,12,06,04,11.20
2010,08,12,06,05,11.20
2010,08,12,06,06,11.20
2010,08,12,06,07,11.20
2010,08,12,06,08,11.20
2010,08,12,06,09,11.20
2010,08,12,06,10,11.20
2010,08,12,06,11,11.20
2010,08,12,06,12,11.20
2010,08,12,06,13,11.10
2010,08,12,06,14,11.10
2010,08,12,06,15,11.10
2010,08,12,06,16,11.10
2010,08,12,06,17,11.10
2010,08,12,06,18,11.10
2010,08,12,06,19,11.10
2010,08,12,06,20,11.10
2010,08,12,06,21,11.00
2010,08,12,06,22,11.00
2010,08,12,06,23,11.00
2010,08,12,06,24,11.00
2010,08,12,06,25,11.00
2010,08,12,06,26,11.00
2010,08,12,06,27,11.00
2010,08,12,06,28,11.00
2010,08,12,06,29,10.90
2010,08,12,06,30,10.90
2010,08,12,06,31,10.90
2010,08,12,06,32,10.90
2010,08,12,06,33,10.90
2010,08,12,06,34,10.90
2010,08,12,06,35,10.90
2010,08,12,06,36,10.90
2010,08,12,06,37,10.90
2010,08,12,06,38,10.90
2010,08,12,06,39,10.90
2010,08,12,06,40,10.90
2010,08,12,06,41,10.90
2010,08,12,06,42,10.90
2010,08,12,06,43,10.90
2010,08,12,06,44,10.90
2010,08,12,06,45,10.90
2010,08,12,06,46,10.80
2010,08,12,06,47,10.80
2010,08,12,06,48,10.80
2010,08,12,06,49,10.80
2010,08,12,06,50,10.80
2010,08,12,06,51,10.80
2010,08,12,06,52,10.80
2010,08,12,06,53,10.80
2010,08,12,06,54,10.80
2010,08,12,06,55,10.80
2010,08,12,06,56,10.90
2010,08,12,06,57,10.90
2010,08,12,06,58,10.90
2010,08,12,06,59,11.00
2010,08,12,07,00,11.00
2010,08,12,07,01,11.10
2010,08,12,07,02,11.10
2010,08,12,07,03,11.20
2010,08,12,07,04,11.20
2010,08,12,07,05,11.30
2010,08,12,07,06,11.30
2010,08,12,07,07,11.30
2010,08,12,07,08,11.30
2010,08,12,07,09,11.30
2010,08,12,07,10,11.30
2010,08,12,07,11,11.30
2010,08,12,07,12,11.30
2010,08,12,07,13,11.40
2010,08,12,07,14,11.40
2010,08,12,07,15,11.40
2010,08,12,07,16,11.40
2010,08,12,07,17,11.50
2010,08,12,07,18,11.50
2010,08,12,07,19,11.60
2010,08,12,07,20,11.60
2010,08,12,07,21,11.60
2010,08,12,07,22,11.60
2010,08,12,07,23,11.50
2010,08,12,07,24,11.50
2010,08,12,07,25,11.50
2010,08,12,07,26,11.50
2010,08,12,07,27,11.50
2010,08,12,07,28,11.50
2010,08,12,07,29,11.60
2010,08,12,07,30,11.60
2010,08,12,07,31,11.60
2010,08,12,07,32,11.60
2010,08,12,07,33,11.70
2010,08,12,07,34,11.80
2010,08,12,07,35,11.80
2010,08,12,07,36,11.90
2010,08,12,07,37,12.00
2010,08,12,07,38,12.10
2010,08,12,07,39,12.20
2010,08,12,07,40,12.20
2010,08,12,07,41,12.30
2010,08,12,07,42,12.30
2010,08,12,07,43,12.40
2010,08,12,07,44,12.40
2010,08,12,07,45,12.50
2010,08,12,07,46,12.60
2010,08,12,07,47,12.60
2010,08,12,07,48,12.70
2010,08,12,07,49,12.80
2010,08,12,07,50,12.80
2010,08,12,07,51,12.90
2010,08,12,07,52,13.00
2010,08,12,07,53,13.10
2010,08,12,07,54,13.20
2010,08,12,07,55,13.30
2010,08,12,07,56,13.40
2010,08,12,07,57,13.50
2010,08,12,07,58,13.60
2010,08,12,07,59,13.70
2010,08,12,08,00,13.70
2010,08,12,08,01,13.80
2010,08,12,08,02,13.80
2010,08,12,08,03,13.90
2010,08,12,08,04,13.90
2010,08,12,08,05,14.00
2010,08,12,08,06,14.10
2010,08,12,08,07,14.10
2010,08,12,08,08,14.20
2010,08,12,08,09,14.30
2010,08,12,08,10,14.30
2010,08,12,08,11,14.40
2010,08,12,08,12,14.40
2010,08,12,08,13,14.40
2010,08,12,08,14,14.50
2010,08,12,08,15,14.60
2010,08,12,08,16,14.70
2010,08,12,08,17,14.80
2010,08,12,08,18,14.90
2010,08,12,08,19,15.00
2010,08,12,08,20,15.00
2010,08,12,08,21,15.00
2010,08,12,08,22,15.00
2010,08,12,08,23,15.00
2010,08,12,08,24,15.00
2010,08,12,08,25,15.00
2010,08,12,08,26,15.10
2010,08,12,08,27,15.20
2010,08,12,08,28,15.30
2010,08,12,08,29,15.30
2010,08,12,08,30,15.40
2010,08,12,08,31,15.40
2010,08,12,08,32,15.50
2010,08,12,08,33,15.50
2010,08,12,08,34,15.50
2010,08,12,08,35,15.60
2010,08,12,08,36,15.60
2010,08,12,08,37,15.70
2010,08,12,08,38,15.70
2010,08,12,08,39,15.70
2010,08,12,08,40,15.80
2010,08,12,08,41,15.90
2010,08,12,08,42,15.90
2010,08,12,08,43,15.90
2010,08,12,08,44,15.90
2010,08,12,08,45,15.90
2010,08,12,08,46,15.90
2010,08,12,08,47,16.00
2010,08,12,08,48,16.00
2010,08,12,08,49,16.10
2010,08,12,08,50,16.10
2010,08,12,08,51,16.10
2010,08,12,08,52,16.20
2010,08,12,08,53,16.20
2010,08,12,08,54,16.20
2010,08,12,08,55,16.20
2010,08,12,08,56,16.30
2010,08,12,08,57,16.30
2010,08,12,08,58,16.40
2010,08,12,08,59,16.40
2010,08,12,09,00,16.50
2010,08,12,09,01,16.60
2010,08,12,09,02,16.70
2010,08,12,09,03,16.70
2010,08,12,09,04,16.80
2010,08,12,09,05,16.80
2010,08,12,09,06,16.80
2010,08,12,09,07,16.80
2010,08,12,09,08,16.90
2010,08,12,09,09,17.00
2010,08,12,09,10,17.10
2010,08,12,09,11,17.10
2010,08,12,09,12,17.10
2010,08,12,09,13,17.10
2010,08,12,09,14,17.10
2010,08,12,09,15,17.10
2010,08,12,09,16,17.10
2010,08,12,09,17,17.10
2010,08,12,09,18,17.20
2010,08,12,09,19,17.30
2010,08,12,09,20,17.30
2010,08,12,09,21,17.40
2010,08,12,09,22,17.50
2010,08,12,09,23,17.60
2010,08,12,09,24,17.70
2010,08,12,09,25,17.70
2010,08,12,09,26,17.70
2010,08,12,09,27,17.80
2010,08,12,09,28,17.80
2010,08,12,09,29,17.70
2010,08,12,09,30,17.70
2010,08,12,09,31,17.70
2010,08,12,09,32,17.70
2010,08,12,09,33,17.70
2010,08,12,09,34,17.70
2010,08,12,09,35,17.70
2010,08,12,09,36,17.70
2010,08,12,09,37,17.70
2010,08,12,09,38,17.70
2010,08,12,09,39,17.70
2010,08,12,09,40,17.70
2010,08,12,09,41,17.70
2010,08,12,09,42,17.70
2010,08,12,09,43,17.70
2010,08,12,09,44,17.80
2010,08,12,09,45,17.80
2010,08,12,09,46,17.80
2010,08,12,09,47,17.90
2010,08,12,09,48,17.90
2010,08,12,09,49,17.90
2010,08,12,09,50,18.00
2010,08,12,09,51,18.00
2010,08,12,09,52,18.10
2010,08,12,09,53,18.10
2010,08,12,09,54,18.00
2010,08,12,09,55,18.00
2010,08,12,09,56,18.00
2010,08,12,09,57,17.90
2010,08,12,09,58,18.00
2010,08,12,09,59,17.90
2010,08,12,10,00,18.00
2010,08,12,10,01,18.00
2010,08,12,10,02,18.10
2010,08,12,10,03,18.20
2010,08,12,10,04,18.20
2010,08,12,10,05,18.20
2010,08,12,10,06,18.20
2010,08,12,10,07,18.20
2010,08,12,10,08,18.10
2010,08,12,10,09,18.10
2010,08,12,10,10,18.10
2010,08,12,10,11,18.10
2010,08,12,10,12,18.20
2010,08,12,10,13,18.30
2010,08,12,10,14,18.30
2010,08,12,10,15,18.30
2010,08,12,10,16,18.30
2010,08,12,10,17,18.40
2010,08,12,10,18,18.40
2010,08,12,10,19,18.50
2010,08,12,10,20,18.60
2010,08,12,10,21,18.60
2010,08,12,10,22,18.60
2010,08,12,10,23,18.70
2010,08,12,10,24,18.70
2010,08,12,10,25,18.70
2010,08,12,10,26,18.70
2010,08,12,10,27,18.70
2010,08,12,10,28,18.60
2010,08,12,10,29,18.60
2010,08,12,10,30,18.70
2010,08,12,10,31,18.80
2010,08,12,10,32,18.90
2010,08,12,10,33,19.00
2010,08,12,10,34,19.10
2010,08,12,10,35,19.20
2010,08,12,10,36,19.30
2010,08,12,10,37,19.30
2010,08,12,10,38,19.40
2010,08,12,10,39,19.40
2010,08,12,10,40,19.40
2010,08,12,10,41,19.40
2010,08,12,10,42,19.40
2010,08,12,10,43,19.40
2010,08,12,10,44,19.50
2010,08,12,10,45,19.60
2010,08,12,10,46,19.60
2010,08,12,10,47,19.70
2010,08,12,10,48,19.70
2010,08,12,10,49,19.70
2010,08,12,10,50,19.70
2010,08,12,10,51,19.70
2010,08,12,10,52,19.60
2010,08,12,10,53,19.60
2010,08,12,10,54,19.60
2010,08,12,10,55,19.60
2010,08,12,10,56,19.60
2010,08,12,10,57,19.60
2010,08,12,10,58,19.60
2010,08,12,10,59,19.60
2010,08,12,11,00,19.70
2010,08,12,11,01,19.70
2010,08,12,11,02,19.80
2010,08,12,11,03,19.80
2010,08,12,11,04,19.80
2010,08,12,11,05,19.90
2010,08,12,11,06,19.90
2010,08,12,11,07,19.90
2010,08,12,11,08,19.90
2010,08,12,11,09,20.00
2010,08,12,11,10,20.00
2010,08,12,11,11,20.00
2010,08,12,11,12,20.00
2010,08,12,11,13,20.00
2010,08,12,11,14,20.10
2010,08,12,11,15,20.10
2010,08,12,11,16,20.10
2010,08,12,11,17,20.10
2010,08,12,11,18,20.20
2010,08,12,11,19,20.20
2010,08,12,11,20,20.30
2010,08,12,11,21,20.30
2010,08,12,11,22,20.30
2010,08,12,11,23,20.30
2010,08,12,11,24,20.30
2010,08,12,11,25,20.40
2010,08,12,11,26,20.40
2010,08,12,11,27,20.50
2010,08,12,11,28,20.60
2010,08,12,11,29,20.60
2010,08,12,11,30,20.60
2010,08,12,11,31,20.60
2010,08,12,11,32,20.60
2010,08,12,11,33,20.60
2010,08,12,11,34,20.50
2010,08,12,11,35,20.40
2010,08,12,11,36,20.40
2010,08,12,11,37,20.50
2010,08,12,11,38,20.50
2010,08,12,11,39,20.50
2010,08,12,11,40,20.60
2010,08,12,11,41,20.60
2010,08,12,11,42,20.70
2010,08,12,11,43,20.70
2010,08,12,11,44,20.70
2010,08,12,11,45,20.70
2010,08,12,11,46,20.70
2010,08,12,11,47,20.60
2010,08,12,11,48,20.60
2010,08,12,11,49,20.50
2010,08,12,11,50,20.40
2010,08,12,11,51,20.40
2010,08,12,11,52,20.40
2010,08,12,11,53,20.50
2010,08,12,11,54,20.50
2010,08,12,11,55,20.60
2010,08,12,11,56,20.60
2010,08,12,11,57,20.70
2010,08,12,11,58,20.80
2010,08,12,11,59,20.90
2010,08,12,12,00,21.00
2010,08,12,12,01,21.00
2010,08,12,12,02,20.90
2010,08,12,12,03,20.70
2010,08,12,12,04,20.70
2010,08,12,12,05,20.50
2010,08,12,12,06,20.50
2010,08,12,12,07,20.40
2010,08,12,12,08,20.40
2010,08,12,12,09,20.40
2010,08,12,12,10,20.40
2010,08,12,12,11,20.40
2010,08,12,12,12,20.30
2010,08,12,12,13,20.30
2010,08,12,12,14,20.30
2010,08,12,12,15,20.40
2010,08,12,12,16,20.50
2010,08,12,12,17,20.50
2010,08,12,12,18,20.60
2010,08,12,12,19,20.60
2010,08,12,12,20,20.50
2010,08,12,12,21,20.50
2010,08,12,12,22,20.50
2010,08,12,12,23,20.60
2010,08,12,12,24,20.50
2010,08,12,12,25,20.40
2010,08,12,12,26,20.30
2010,08,12,12,27,20.20
2010,08,12,12,28,20.10
2010,08,12,12,29,20.00
2010,08,12,12,30,20.00
2010,08,12,12,31,20.00
2010,08,12,12,32,20.00
2010,08,12,12,33,20.00
2010,08,12,12,34,19.90
2010,08,12,12,35,19.80
2010,08,12,12,36,19.80
2010,08,12,12,37,19.90
2010,08,12,12,38,19.90
2010,08,12,12,39,19.90
2010,08,12,12,40,19.90
2010,08,12,12,41,19.80
2010,08,12,12,42,19.80
2010,08,12,12,43,19.90
2010,08,12,12,44,19.90
2010,08,12,12,45,19.80
2010,08,12,12,46,19.80
2010,08,12,12,47,19.70
2010,08,12,12,48,19.70
2010,08,12,12,49,19.80
2010,08,12,12,50,19.80
2010,08,12,12,51,19.70
2010,08,12,12,52,19.70
2010,08,12,12,53,19.80
2010,08,12,12,54,19.80
2010,08,12,12,55,19.80
2010,08,12,12,56,19.70
2010,08,12,12,57,19.70
2010,08,12,12,58,19.60
2010,08,12,12,59,19.60
2010,08,12,13,00,19.60
2010,08,12,13,01,19.50
2010,08,12,13,02,19.30
2010,08,12,13,03,19.30
2010,08,12,13,04,19.30
2010,08,12,13,05,19.30
2010,08,12,13,06,19.30
2010,08,12,13,07,19.30
2010,08,12,13,08,19.40
2010,08,12,13,09,19.40
2010,08,12,13,10,19.50
2010,08,12,13,11,19.60
2010,08,12,13,12,19.70
2010,08,12,13,13,19.70
2010,08,12,13,14,19.70
2010,08,12,13,15,19.60
2010,08,12,13,16,19.60
2010,08,12,13,17,19.60
2010,08,12,13,18,19.60
2010,08,12,13,19,19.50
2010,08,12,13,20,19.50
2010,08,12,13,21,19.50
2010,08,12,13,22,19.60
2010,08,12,13,23,19.70
2010,08,12,13,24,19.70
2010,08,12,13,25,19.70
2010,08,12,13,26,19.70
2010,08,12,13,27,19.70
2010,08,12,13,28,19.60
2010,08,12,13,29,19.70
2010,08,12,13,30,19.80
2010,08,12,13,31,19.90
2010,08,12,13,32,20.00
2010,08,12,13,33,20.20
2010,08,12,13,34,20.30
2010,08,12,13,35,20.30
2010,08,12,13,36,20.30
2010,08,12,13,37,20.30
2010,08,12,13,38,20.40
2010,08,12,13,39,20.50
2010,08,12,13,40,20.60
2010,08,12,13,41,20.60
2010,08,12,13,42,20.70
2010,08,12,13,43,20.80
2010,08,12,13,44,20.70
2010,08,12,13,45,20.60
2010,08,12,13,46,20.60
2010,08,12,13,47,20.60
2010,08,12,13,48,20.60
2010,08,12,13,49,20.60
2010,08,12,13,50,20.60
2010,08,12,13,51,20.60
2010,08,12,13,52,20.70
2010,08,12,13,53,20.80
2010,08,12,13,54,20.90
2010,08,12,13,55,21.00
2010,08,12,13,56,21.10
2010,08,12,13,57,21.20
2010,08,12,13,58,21.20
2010,08,12,13,59,21.20
2010,08,12,14,00,21.20
2010,08,12,14,01,21.30
2010,08,12,14,02,21.20
2010,08,12,14,03,21.10
2010,08,12,14,04,21.00
2010,08,12,14,05,20.90
2010,08,12,14,06,20.90
2010,08,12,14,07,20.90
2010,08,12,14,08,20.80
2010,08,12,14,09,20.80
2010,08,12,14,10,20.90
2010,08,12,14,11,21.00
2010,08,12,14,12,21.10
2010,08,12,14,13,21.20
2010,08,12,14,14,21.30
2010,08,12,14,15,21.30
2010,08,12,14,16,21.30
2010,08,12,14,17,21.20
2010,08,12,14,18,21.10
2010,08,12,14,19,21.10
2010,08,12,14,20,21.10
2010,08,12,14,21,21.10
2010,08,12,14,22,21.20
2010,08,12,14,23,21.30
2010,08,12,14,24,21.20
2010,08,12,14,25,21.10
2010,08,12,14,26,21.00
2010,08,12,14,27,21.10
2010,08,12,14,28,21.20
2010,08,12,14,29,21.30
2010,08,12,14,30,21.30
2010,08,12,14,31,21.40
2010,08,12,14,32,21.40
2010,08,12,14,33,21.50
2010,08,12,14,34,21.60
2010,08,12,14,35,21.60
2010,08,12,14,36,21.50
2010,08,12,14,37,21.50
2010,08,12,14,38,21.50
2010,08,12,14,39,21.50
2010,08,12,14,40,21.50
2010,08,12,14,41,21.40
2010,08,12,14,42,21.30
2010,08,12,14,43,21.20
2010,08,12,14,44,21.20
2010,08,12,14,45,21.40
2010,08,12,14,46,21.50
2010,08,12,14,47,21.60
2010,08,12,14,48,21.70
2010,08,12,14,49,21.80
2010,08,12,14,50,21.80
2010,08,12,14,51,21.90
2010,08,12,14,52,21.90
2010,08,12,14,53,22.00
2010,08,12,14,54,22.00
2010,08,12,14,55,22.00
2010,08,12,14,56,22.00
2010,08,12,14,57,22.00
2010,08,12,14,58,21.90
2010,08,12,14,59,21.90
2010,08,12,15,00,21.90
2010,08,12,15,01,21.90
2010,08,12,15,02,21.80
2010,08,12,15,03,21.70
2010,08,12,15,04,21.70
2010,08,12,15,05,21.70
2010,08,12,15,06,21.70
2010,08,12,15,07,21.60
2010,08,12,15,08,21.50
2010,08,12,15,09,21.40
2010,08,12,15,10,21.30
2010,08,12,15,11,21.30
2010,08,12,15,12,21.30
2010,08,12,15,13,21.20
2010,08,12,15,14,21.00
2010,08,12,15,15,21.00
2010,08,12,15,16,20.90
2010,08,12,15,17,20.90
2010,08,12,15,18,20.90
2010,08,12,15,19,21.00
2010,08,12,15,20,21.00
2010,08,12,15,21,20.90
2010,08,12,15,22,20.90
2010,08,12,15,23,20.90
2010,08,12,15,24,20.90
2010,08,12,15,25,20.80
2010,08,12,15,26,20.80
2010,08,12,15,27,20.90
2010,08,12,15,28,20.90
2010,08,12,15,29,20.90
2010,08,12,15,30,20.80
2010,08,12,15,31,20.70
2010,08,12,15,32,20.70
2010,08,12,15,33,20.60
2010,08,12,15,34,20.50
2010,08,12,15,35,20.60
2010,08,12,15,36,20.60
2010,08,12,15,37,20.60
2010,08,12,15,38,20.60
2010,08,12,15,39,20.70
2010,08,12,15,40,20.80
2010,08,12,15,41,20.90
2010,08,12,15,42,21.00
2010,08,12,15,43,21.10
2010,08,12,15,44,21.10
2010,08,12,15,45,21.10
2010,08,12,15,46,21.10
2010,08,12,15,47,21.10
2010,08,12,15,48,21.20
2010,08,12,15,49,21.30
2010,08,12,15,50,21.40
2010,08,12,15,51,21.50
2010,08,12,15,52,21.50
2010,08,12,15,53,21.60
2010,08,12,15,54,21.60
2010,08,12,15,55,21.70
2010,08,12,15,56,21.80
2010,08,12,15,57,21.80
2010,08,12,15,58,21.80
2010,08,12,15,59,21.80
2010,08,12,16,00,21.80
2010,08,12,16,01,21.80
2010,08,12,16,02,21.70
2010,08,12,16,03,21.60
2010,08,12,16,04,21.50
2010,08,12,16,05,21.50
2010,08,12,16,06,21.40
2010,08,12,16,07,21.30
2010,08,12,16,08,21.30
2010,08,12,16,09,21.30
2010,08,12,16,10,21.30
2010,08,12,16,11,21.20
2010,08,12,16,12,21.20
2010,08,12,16,13,21.20
2010,08,12,16,14,21.20
2010,08,12,16,15,21.30
2010,08,12,16,16,21.30
2010,08,12,16,17,21.30
2010,08,12,16,18,21.30
2010,08,12,16,19,21.30
2010,08,12,16,20,21.30
2010,08,12,16,21,21.30
2010,08,12,16,22,21.30
2010,08,12,16,23,21.30
2010,08,12,16,24,21.30
2010,08,12,16,25,21.40
2010,08,12,16,26,21.40
2010,08,12,16,27,21.40
2010,08,12,16,28,21.40
2010,08,12,16,29,21.50
2010,08,12,16,30,21.60
2010,08,12,16,31,21.60
2010,08,12,16,32,21.70
2010,08,12,16,33,21.70
2010,08,12,16,34,21.80
2010,08,12,16,35,21.70
2010,08,12,16,36,21.70
2010,08,12,16,37,21.70
2010,08,12,16,38,21.80
2010,08,12,16,39,21.80
2010,08,12,16,40,21.80
2010,08,12,16,41,21.90
2010,08,12,16,42,21.90
2010,08,12,16,43,22.00
2010,08,12,16,44,22.00
2010,08,12,16,45,22.00
2010,08,12,16,46,22.10
2010,08,12,16,47,22.20
2010,08,12,16,48,22.30
2010,08,12,16,49,22.30
2010,08,12,16,50,22.40
2010,08,12,16,51,22.40
2010,08,12,16,52,22.40
2010,08,12,16,53,22.40
2010,08,12,16,54,22.40
2010,08,12,16,55,22.40
2010,08,12,16,56,22.40
2010,08,12,16,57,22.30
2010,08,12,16,58,22.30
2010,08,12,16,59,22.30
2010,08,12,17,00,22.20
2010,08,12,17,01,22.20
2010,08,12,17,02,22.20
2010,08,12,17,03,22.20
2010,08,12,17,04,22.20
2010,08,12,17,05,22.20
2010,08,12,17,06,22.10
2010,08,12,17,07,22.10
2010,08,12,17,08,22.00
2010,08,12,17,09,21.90
2010,08,12,17,10,21.80
2010,08,12,17,11,21.80
2010,08,12,17,12,21.80
2010,08,12,17,13,21.80
2010,08,12,17,14,21.80
2010,08,12,17,15,21.80
2010,08,12,17,16,21.80
2010,08,12,17,17,21.80
2010,08,12,17,18,21.80
2010,08,12,17,19,21.70